This is the latest recevied weather packets stored in our database for station/object JF7ELG-13. If no packets are shown the sender has not sent any weather packets the latest 10 day(s).
| Time | Temp. | Humidity | Pressure | Rain* | Wind** | Luminosity | Snow |
|---|---|---|---|---|---|---|---|
| 1778001502 | 13.89° C | 61% | 1017.3 hPa | 0 mm | - | - | - |
| 1778000625 | 13.89° C | 60% | 1017.3 hPa | 0 mm | - | - | - |
| 1777999732 | 13.89° C | 56% | 1017.3 hPa | 0 mm | - | - | - |
| 1777998811 | 13.89° C | 54% | 1017.3 hPa | 0 mm | - | - | - |
| 1777997906 | 13.33° C | 53% | 1017.6 hPa | 0 mm | - | - | - |
| 1777997010 | 13.33° C | 53% | 1017.4 hPa | 0 mm | - | - | - |
| 1777996096 | 13.33° C | 54% | 1017.6 hPa | 0 mm | - | - | - |
| 1777995225 | 13.33° C | 54% | 1017.7 hPa | 0 mm | - | - | - |
| 1777994300 | 13.33° C | 55% | 1017.7 hPa | 0 mm | - | - | - |
| 1777993404 | 13.33° C | 54% | 1017.7 hPa | 0 mm | - | - | - |
| 1777992501 | 13.33° C | 55% | 1017.7 hPa | 0 mm | - | - | - |
| 1777991627 | 13.33° C | 58% | 1017.5 hPa | 0 mm | - | - | - |
| 1777990715 | 13.33° C | 59% | 1017.8 hPa | 0 mm | - | - | - |
| 1777989799 | 13.33° C | 61% | 1017.9 hPa | 0 mm | - | - | - |
| 1777988906 | 13.33° C | 63% | 1018 hPa | 0 mm | - | - | - |
| 1777988011 | 13.33° C | 67% | 1018 hPa | 0 mm | - | - | - |
| 1777987130 | 13.33° C | 67% | 1018 hPa | 0 mm | - | - | - |
| 1777986234 | 13.89° C | 66% | 1018 hPa | 0 mm | - | - | - |
| 1777985313 | 13.89° C | 68% | 1018.1 hPa | 0 mm | - | - | - |
| 1777984409 | 13.89° C | 68% | 1018.1 hPa | 0 mm | - | - | - |
| 1777983508 | 13.89° C | 69% | 1018 hPa | 0 mm | - | - | - |
| 1777982627 | 13.89° C | 69% | 1017.9 hPa | 0 mm | - | - | - |
| 1777981736 | 13.89° C | 70% | 1017.7 hPa | 0 mm | - | - | - |
| 1777980832 | 13.89° C | 69% | 1017.4 hPa | 0 mm | - | - | - |
| 1777979942 | 14.44° C | 67% | 1017.7 hPa | 0 mm | - | - | - |
* Rain latest hour (hover to see other rain measurements)
** Current wind speed in m/s (hover to see current wind gust speed)